Location: Observatoire
(46.1952°N, 5.3391°E)
Time: 21:48:03
(UTC+01:00)

Vanguard 1 Rocket - All Passes

Search period start: 17 February 2026 00:00
Search period end: 27 February 2026 00:00
Orbit: 652 x 4215 km, 34.3° (Epoch: 16 February)

Date Brightness Start Highest point End Pass type
(mag) Time Alt. Az. Time Alt. Az. Time Alt. Az.
17 Feb - 11:49:21 10° SSE 11:53:31 14° SE 11:58:50 10° ESE daylight
17 Feb - 14:07:54 10° SW 14:17:12 42° SSE 14:34:02 10° E daylight
17 Feb - 16:31:15 10° WSW 16:44:20 55° S 17:07:03 10° ESE daylight
17 Feb - 18:57:00 10° W 19:13:41 44° SSW 19:36:56 10° SE visible
17 Feb - 21:27:21 10° W 21:42:32 22° SW 21:59:18 10° S visible
18 Feb - 12:57:25 10° SSW 13:04:48 30° SE 13:17:06 10° E daylight
18 Feb - 15:19:25 10° WSW 15:30:18 52° S 15:50:24 10° ESE daylight
18 Feb - 17:44:00 10° W 17:58:45 50° SSW 18:22:06 10° SE daylight
18 Feb - 20:11:34 10° W 20:28:01 31° SW 20:48:23 10° SSE visible
19 Feb - 11:48:15 10° S 11:53:06 17° SE 11:59:47 10° E daylight
19 Feb - 14:08:06 10° SW 14:17:03 44° SSE 14:33:36 10° E daylight
19 Feb - 16:31:39 10° WSW 16:44:12 53° S 17:06:13 10° ESE daylight
19 Feb - 18:57:31 10° W 19:13:14 39° SSW 19:35:22 10° SSE visible
19 Feb - 21:29:24 10° W 21:41:44 17° SW 21:55:23 10° SSW visible
20 Feb - 12:57:24 10° SSW 13:04:36 33° SSE 13:16:57 10° E daylight
20 Feb - 15:19:48 10° WSW 15:30:15 52° S 15:49:44 10° ESE daylight
20 Feb - 17:44:28 10° W 17:58:29 46° SSW 18:20:52 10° SE daylight
20 Feb - 20:12:36 10° W 20:27:23 26° SW 20:45:48 10° S visible
21 Feb - 11:47:40 10° S 11:52:49 20° SE 12:00:18 10° E daylight
21 Feb - 14:08:25 10° SW 14:17:02 46° SSE 14:33:07 10° E daylight
21 Feb - 16:32:06 10° WSW 16:44:07 50° S 17:05:15 10° ESE daylight
21 Feb - 18:58:12 10° W 19:12:49 34° SSW 19:33:26 10° SSE visible
21 Feb - 21:33:24 10° WSW 21:41:02 12° SW 21:49:16 10° SSW visible
22 Feb - 12:57:33 10° SW 13:04:30 35° SSE 13:16:44 10° E daylight
22 Feb - 15:20:14 10° WSW 15:30:16 50° S 15:49:01 10° ESE daylight
22 Feb - 17:45:02 10° W 17:58:17 41° SSW 18:19:22 10° SE daylight
22 Feb - 20:14:10 10° W 20:26:52 21° SW 20:42:28 10° S visible
23 Feb - 11:47:24 10° SSW 11:52:38 23° SE 12:00:35 10° E daylight
23 Feb - 14:08:48 10° WSW 14:17:05 46° S 14:32:37 10° ESE daylight
23 Feb - 16:32:38 10° W 16:44:04 46° SSW 17:04:07 10° SE daylight
23 Feb - 18:59:09 10° W 19:12:28 28° SSW 19:31:03 10° SSE visible
24 Feb - 10:39:36 10° SSE 10:41:14 11° SE 10:43:05 10° ESE daylight
24 Feb - 12:57:48 10° SW 13:04:32 37° SSE 13:16:30 10° E daylight
24 Feb - 15:20:44 10° WSW 15:30:20 47° S 15:48:12 10° ESE daylight
24 Feb - 17:45:45 10° W 17:58:08 35° SSW 18:17:35 10° SSE daylight
24 Feb - 20:16:44 10° WSW 20:26:25 15° SW 20:37:51 10° SSW visible
25 Feb - 11:47:22 10° SSW 11:52:35 25° SSE 12:00:43 10° E daylight
25 Feb - 14:09:15 10° WSW 14:17:12 45° S 14:32:05 10° ESE daylight
25 Feb - 16:33:14 10° W 16:44:04 41° SSW 17:02:48 10° SE daylight
25 Feb - 19:00:29 10° WSW 19:12:12 23° SW 19:28:05 10° S visible
26 Feb - 10:38:13 10° SSE 10:41:06 14° SE 10:44:38 10° ESE daylight
26 Feb - 12:58:10 10° SW 13:04:39 38° SSE 13:16:13 10° ESE daylight
26 Feb - 15:21:18 10° WSW 15:30:27 44° S 15:47:15 10° SE daylight
26 Feb - 17:46:39 10° W 17:58:02 30° SSW 18:15:26 10° SSE daylight
26 Feb - 20:23:28 10° SW 20:26:04 10° SW 20:28:48 10° SW visible
